DLH65 EDDF-EGLL

Flight info

Callsign DLH65
Flight time N/A
Altitude 40000
Route OBOKA2E OBOKA Z29 TORNU DCT ABNED L980 LOGAN
Aircraft A346/H-SDE2E3FGHIJ3J4J5M1RWXY/LB1D1

Departure

Time N/A
Airport Frankfurt Main Airport (EDDF)

Arrival

Time 2026-05-08 01:24
Airport London Heathrow Airport (EGLL)
Time Latitude Longitude Altitude Speed Heading
2026-05-08 00:56 51.82884 2.83890 26919 ft 423 kts 263°
2026-05-08 00:56 51.82594 2.79182 25983 ft 416 kts 263°
2026-05-08 00:56 51.82306 2.74522 25404 ft 415 kts 263°
2026-05-08 00:57 51.82016 2.69857 25127 ft 416 kts 263°
2026-05-08 00:57 51.81725 2.65194 25140 ft 418 kts 263°
2026-05-08 00:57 51.81430 2.60515 25155 ft 418 kts 263°
2026-05-08 00:57 51.81135 2.55838 25126 ft 418 kts 263°
2026-05-08 00:58 51.80838 2.51159 25115 ft 417 kts 263°
2026-05-08 00:58 51.80538 2.46483 25111 ft 417 kts 263°
2026-05-08 00:58 51.80242 2.41871 25106 ft 418 kts 263°
2026-05-08 00:58 51.79939 2.37193 25101 ft 418 kts 263°
2026-05-08 00:59 51.79635 2.32522 25100 ft 418 kts 263°
2026-05-08 00:59 51.79328 2.27848 25107 ft 418 kts 263°
2026-05-08 00:59 51.79020 2.23174 25101 ft 418 kts 263°
2026-05-08 00:59 51.78713 2.18533 24967 ft 411 kts 263°
2026-05-08 01:00 51.78407 2.13944 24416 ft 410 kts 263°
2026-05-08 01:00 51.78099 2.09359 23905 ft 408 kts 263°
2026-05-08 01:00 51.77796 2.04868 23762 ft 396 kts 263°
2026-05-08 01:00 51.77498 2.00474 23536 ft 386 kts 263°
2026-05-08 01:01 51.77206 1.96185 23333 ft 376 kts 263°
2026-05-08 01:01 51.76921 1.92035 23121 ft 366 kts 262°
2026-05-08 01:01 51.76643 1.88011 22692 ft 354 kts 262°
2026-05-08 01:01 51.76376 1.84142 22335 ft 338 kts 262°
2026-05-08 01:02 51.76118 1.80444 21960 ft 325 kts 262°
2026-05-08 01:02 51.75861 1.76779 21974 ft 328 kts 262°
2026-05-08 01:02 51.75608 1.73178 21889 ft 319 kts 262°
2026-05-08 01:02 51.75361 1.69694 21588 ft 314 kts 262°
2026-05-08 01:03 51.75113 1.66212 21296 ft 309 kts 262°
2026-05-08 01:03 51.74869 1.62790 21031 ft 303 kts 262°
2026-05-08 01:03 51.74635 1.59422 20737 ft 299 kts 262°
2026-05-08 01:03 51.74424 1.56112 20463 ft 294 kts 263°
2026-05-08 01:04 51.74219 1.52862 20219 ft 288 kts 263°
2026-05-08 01:04 51.74017 1.49667 19965 ft 283 kts 263°
2026-05-08 01:04 51.73819 1.46569 19665 ft 280 kts 262°
2026-05-08 01:04 51.73614 1.43385 19319 ft 278 kts 262°
2026-05-08 01:05 51.73415 1.40302 18985 ft 277 kts 262°
2026-05-08 01:05 51.73213 1.37212 18656 ft 276 kts 262°
2026-05-08 01:05 51.73012 1.34133 18322 ft 274 kts 262°
2026-05-08 01:05 51.72811 1.31065 17817 ft 278 kts 262°
2026-05-08 01:06 51.72601 1.27896 17041 ft 290 kts 262°
2026-05-08 01:06 51.72372 1.24485 16426 ft 327 kts 262°
2026-05-08 01:06 51.72112 1.20617 16084 ft 363 kts 262°
2026-05-08 01:06 51.71838 1.16521 16065 ft 366 kts 263°
2026-05-08 01:07 51.71567 1.12450 15615 ft 364 kts 262°
2026-05-08 01:07 51.71289 1.08322 14672 ft 375 kts 262°
2026-05-08 01:07 51.71002 1.04101 13867 ft 381 kts 262°
2026-05-08 01:07 51.70711 0.99850 13259 ft 378 kts 262°
2026-05-08 01:08 51.70422 0.95639 12673 ft 375 kts 262°
2026-05-08 01:08 51.70138 0.91524 12095 ft 373 kts 262°
2026-05-08 01:08 51.69850 0.87379 11535 ft 370 kts 263°
2026-05-08 01:08 51.69563 0.83268 10984 ft 367 kts 263°
2026-05-08 01:09 51.69276 0.79186 10440 ft 364 kts 263°
2026-05-08 01:09 51.68990 0.75150 9903 ft 361 kts 263°
2026-05-08 01:09 51.68801 0.72490 9526 ft 359 kts 263°
2026-05-08 01:09 51.68518 0.68503 8956 ft 356 kts 263°
2026-05-08 01:10 51.68236 0.64540 8383 ft 354 kts 263°
2026-05-08 01:10 51.67954 0.60608 8093 ft 353 kts 263°
2026-05-08 01:10 51.67668 0.56651 8080 ft 355 kts 263°
2026-05-08 01:10 51.67381 0.52696 8079 ft 355 kts 263°
2026-05-08 01:11 51.67093 0.48740 8076 ft 354 kts 263°
2026-05-08 01:11 51.66809 0.44846 7781 ft 347 kts 263°
2026-05-08 01:11 51.66525 0.40976 7243 ft 348 kts 263°
2026-05-08 01:11 51.66237 0.37076 7075 ft 351 kts 263°
2026-05-08 01:12 51.65947 0.33160 7076 ft 352 kts 263°
2026-05-08 01:12 51.65655 0.29237 7078 ft 352 kts 263°
2026-05-08 01:12 51.65364 0.25358 7078 ft 352 kts 263°
2026-05-08 01:12 51.65065 0.21386 7077 ft 352 kts 263°
2026-05-08 01:13 51.64772 0.17512 7079 ft 352 kts 263°
2026-05-08 01:13 51.64482 0.13516 7074 ft 352 kts 264°
2026-05-08 01:13 51.64259 0.09617 7074 ft 352 kts 265°
2026-05-08 01:13 51.64049 0.05676 7080 ft 352 kts 265°
2026-05-08 01:14 51.63839 0.01729 7073 ft 352 kts 265°
2026-05-08 01:14 51.63621 -0.02284 7079 ft 352 kts 265°
2026-05-08 01:14 51.63404 -0.06218 7080 ft 352 kts 265°
2026-05-08 01:14 51.63183 -0.10165 7072 ft 352 kts 265°
2026-05-08 01:15 51.62959 -0.14138 7077 ft 352 kts 265°
2026-05-08 01:15 51.62734 -0.18074 7074 ft 353 kts 264°
2026-05-08 01:15 51.62512 -0.21953 7077 ft 353 kts 264°
2026-05-08 01:15 51.62284 -0.25904 7075 ft 353 kts 264°
2026-05-08 01:16 51.62054 -0.29874 7074 ft 353 kts 264°
2026-05-08 01:16 51.61820 -0.33865 7077 ft 353 kts 264°
2026-05-08 01:16 51.61586 -0.37851 7074 ft 354 kts 264°
2026-05-08 01:16 51.61350 -0.41844 7073 ft 354 kts 264°
2026-05-08 01:17 51.61114 -0.45813 7079 ft 354 kts 264°
2026-05-08 01:17 51.60876 -0.49790 7077 ft 354 kts 264°
2026-05-08 01:17 51.60637 -0.53764 7072 ft 355 kts 264°
2026-05-08 01:17 51.60397 -0.57716 7079 ft 355 kts 264°
2026-05-08 01:18 51.60153 -0.61704 7076 ft 355 kts 264°
2026-05-08 01:18 51.59911 -0.65660 7073 ft 354 kts 264°
2026-05-08 01:18 51.59672 -0.69533 6994 ft 348 kts 264°
2026-05-08 01:18 51.59436 -0.73357 6775 ft 337 kts 264°
2026-05-08 01:19 51.59125 -0.77034 6537 ft 326 kts 254°
2026-05-08 01:19 51.58040 -0.80124 6303 ft 314 kts 224°
2026-05-08 01:19 51.56225 -0.81873 6074 ft 301 kts 194°
2026-05-08 01:19 51.54187 -0.81968 5486 ft 291 kts 163°
2026-05-08 01:20 51.52350 -0.80799 5110 ft 276 kts 158°
2026-05-08 01:20 51.50669 -0.79529 4741 ft 262 kts 143°
2026-05-08 01:20 51.49531 -0.77263 3918 ft 267 kts 117°
2026-05-08 01:20 51.48795 -0.74491 3114 ft 271 kts 110°
2026-05-08 01:21 51.48245 -0.71628 2612 ft 263 kts 108°
2026-05-08 01:21 51.47816 -0.68888 2485 ft 242 kts 100°
2026-05-08 01:21 51.47667 -0.66294 2336 ft 227 kts 92°
2026-05-08 01:21 51.47690 -0.63806 2045 ft 218 kts 90°
2026-05-08 01:22 51.47727 -0.61429 1753 ft 204 kts 91°
2026-05-08 01:22 51.47735 -0.59212 1445 ft 191 kts 92°
2026-05-08 01:22 51.47734 -0.57185 1169 ft 176 kts 91°
2026-05-08 01:22 51.47733 -0.55295 925 ft 162 kts 91°
2026-05-08 01:23 51.47730 -0.53908 676 ft 155 kts 90°
2026-05-08 01:23 51.47740 -0.52179 419 ft 151 kts 90°
2026-05-08 01:23 51.47739 -0.50444 295 ft 153 kts 90°
2026-05-08 01:23 51.47749 -0.48729 128 ft 152 kts 90°
2026-05-08 01:24 51.47755 -0.47093 99 ft 128 kts 90°
2026-05-08 01:24 51.47759 -0.45970 97 ft 88 kts 89°
2026-05-08 01:24 51.47753 -0.45264 98 ft 33 kts 112°
2026-05-08 01:24 51.47630 -0.45191 98 ft 10 kts 182°
2026-05-08 01:25 51.47597 -0.45184 98 ft 0 kts 172°